Regional Weather Roundup
Issued by NWS

Home | Current Version | Previous Version | Graphics & Text | Print | Product List | Glossary On
Versions: 1 2 3 4 5 6 7 8 9 10 11 12 13 14 15 16 17 18 19 20 21 22 23 24 25 26 27 28 29 30 31 32 33 34 35 36 37 38 39 40 41 42 43 44 45 46 47 48 49 50
554
ASUS44 KMEG 130000
RWRTN
TENNESSEE HOURLY STATE WEATHER ROUNDUP
NATIONAL WEATHER SERVICE MEMPHIS TN
600 PM CST TUE DEC 12 2017

TNZ002-004-019-021-049-052-054-088>092-130100-
WEST TENNESSEE

CITY           SKY/WX    TMP DP  RH WIND       PRES   REMARKS
MEMPHIS INTL   CLEAR     39  21  48 NW8       30.16R WCI  33
NWS MEMPHIS      N/A     39 N/A N/A MISG        N/A
JACKSON        CLEAR     34  18  52 CALM      30.15S
DYERSBURG      CLEAR     37  18  46 NW5       30.16S WCI  33
$$

TNZ008-025-027-028-033-062-065-066-130100-
NORTH MIDDLE TENNESSEE

CITY           SKY/WX    TMP DP  RH WIND       PRES   REMARKS
NASHVILLE      CLEAR     35   9  33 NW13G20   30.10R WCI  26
CLARKSVILLE    CLEAR     32   6  33 NW7       30.12R WCI  26
SMYRNA         CLEAR     34  13  41 NW12      30.11R WCI  25
CROSSVILLE     CLEAR     29  11  47 W10G20    29.99R WCI  20
$$

TNZ061-075-076-078-094-096-097-130100-
SOUTH MIDDLE TENNESSEE

CITY           SKY/WX    TMP DP  RH WIND       PRES   REMARKS
WINCHESTER     CLEAR     36  16  44 NW9       30.05R WCI  29
$$

TNZ017-018-042-046-047-130100-
NORTHEAST TENNESSEE

CITY           SKY/WX    TMP DP  RH WIND       PRES   REMARKS
TRI CITIES     CLOUDY    32  15  49 W12G22    29.87R WCI  23
$$

TNZ012-013-036-069-073-074-130100-
CENTRAL EAST TENNESSEE

CITY           SKY/WX    TMP DP  RH WIND       PRES   REMARKS
KNOXVILLE      PTCLDY    34  20  56 W9        29.98R WCI  27
OAK RIDGE      CLEAR     35  14  42 W7        30.00R WCI  29
$$

TNZ083-085-099-130100-
SOUTHEAST TENNESSEE

CITY           SKY/WX    TMP DP  RH WIND       PRES   REMARKS
CHATTANOOGA    CLEAR     38  19  46 NW12      30.03R WCI  30
$$

SKY/WX REPORTED AS FAIR MEANS FEW OR NO CLOUDS BELOW
12 THOUSAND FEET.





USA.gov is the U.S. government's official web portal to all federal, state and local government web resources and services.